Wind_Speed
24 25 25 26 27 26 26 26 25 25 25 26 28 29 31 33 34 35 36 36 36 35 34 35 36 35 35 34 32 30 30 30 30 32 32 32 33 34 35 37 38 40 42
28 28 28 28 28 28 28 28 28 28 28 29 30 31 33 34 37 39 39 38 36 32 32 31 31 32 32 31 29 28 27 27 29 31 33 34 35 36 37 39 41 42 44
32 31 31 31 30 29 29 30 30 31 31 32 32 34 35 36 38 38 39 37 34 33 31 30 28 26 26 26 26 26 27 29 31 33 35 37 38 38 40 42 44 45 47
35 34 33 32 31 31 31 32 32 33 34 34 34 35 37 38 39 40 38 36 33 32 29 26 24 24 25 26 27 28 29 32 34 36 38 40 42 44 47 47 48 49 51
36 35 34 33 32 32 32 33 34 35 35 36 37 38 39 39 39 39 38 36 34 33 31 28 26 28 29 30 31 33 35 37 39 40 42 44 46 48 50 51 53 54 55
35 34 34 33 33 33 34 35 36 37 37 38 38 39 39 39 40 40 39 38 37 35 33 32 31 32 34 35 36 37 39 41 43 45 46 48 49 51 53 55 56 58 59
33 33 33 33 33 33 34 34 36 37 37 38 39 39 39 40 41 40 40 39 38 37 37 36 36 36 37 39 41 42 44 45 47 48 49 51 53 54 56 57 59 60 60
30 30 29 29 30 31 32 33 35 36 37 38 39 39 40 41 41 41 41 41 41 41 41 40 41 41 42 44 45 46 48 49 50 51 52 54 55 56 57 58 60 61 61
26 26 26 26 27 29 31 33 34 36 37 38 39 40 41 42 42 42 44 44 44 44 45 45 45 45 46 47 48 49 51 51 52 53 55 56 57 58 58 59 60 61 60
25 25 26 27 27 29 31 32 34 36 37 39 40 41 43 43 43 44 45 46 46 47 48 48 49 50 51 52 52 52 53 54 55 55 56 56 57 57 57 57 58 59 59
25 25 27 28 29 30 32 34 35 37 38 40 42 43 44 44 45 47 48 48 49 50 51 52 52 53 53 54 54 54 54 55 55 55 55 55 55 55 56 56 57 58 58
25 27 29 30 31 33 34 36 37 39 40 42 44 45 46 47 49 50 51 52 53 53 54 54 54 55 55 55 55 55 54 54 54 54 54 54 54 54 54 55 55 56 56
29 30 31 32 34 35 36 38 39 41 43 44 45 47 48 50 51 53 54 55 55 55 55 55 55 55 55 55 54 54 53 53 52 52 52 52 52 53 53 53 53 53 53
32 34 35 36 37 39 40 41 42 44 45 46 47 49 50 52 53 54 55 56 56 56 56 56 55 55 54 53 53 52 52 51 51 51 51 51 51 51 51 51 50 50 50
35 37 38 39 41 42 43 44 45 46 47 48 49 51 52 53 54 54 55 55 55 55 55 55 54 54 53 52 51 50 50 49 49 49 50 50 50 49 49 48 47 47 47
37 38 39 40 42 42 43 44 44 45 47 49 50 51 51 52 53 53 54 54 54 54 54 53 53 52 51 50 49 48 48 48 48 49 49 48 47 46 46 45 44 43 41
39 40 40 41 41 42 42 44 45 47 48 49 49 49 50 51 52 52 52 53 52 52 51 51 50 49 49 49 49 49 49 48 48 48 47 46 45 44 43 41 39 37 34
37 38 39 40 40 41 42 44 45 46 47 47 48 48 49 49 50 50 50 49 49 49 48 48 48 49 49 49 49 48 48 47 47 46 44 43 41 40 37 34 32 30 27
37 37 38 39 39 41 42 43 44 45 46 46 46 46 46 47 47 47 46 46 46 47 47 47 47 48 48 48 48 48 47 45 43 41 39 37 35 32 30 28 26 24 21
35 36 37 37 39 40 41 42 43 43 43 43 44 44 44 44 44 44 44 44 45 45 46 46 47 47 47 46 45 44 42 39 37 35 32 29 27 25 24 22 19 17 15
33 34 35 36 37 38 39 40 40 40 41 41 41 41 42 42 42 42 43 43 44 44 45 45 45 45 44 42 39 37 34 32 29 27 24 22 20 18 16 14 12 11 11
31 32 34 35 35 36 36 37 38 38 38 38 38 39 39 40 41 41 42 42 43 43 42 42 41 39 36 33 30 27 25 23 21 19 17 15 13 12 10 9 8 8 8
30 31 32 32 32 33 33 34 34 35 35 35 36 37 39 39 40 40 40 40 39 38 37 35 32 29 26 23 21 19 17 16 14 12 10 9 7 6 5 5 4 5 6
27 28 28 29 29 30 31 31 31 32 33 35 36 37 38 38 38 37 36 34 33 30 28 26 23 20 18 16 15 14 12 10 8 7 5 4 3 2 2 2 4 5 6
24 25 25 26 26 27 28 29 30 32 33 35 35 36 35 34 31 30 28 27 25 23 20 18 16 14 13 11 10 8 6 5 3 1 0 1 2 3 3 4 5 6 6
21 21 22 22 23 25 27 29 31 31 31 32 31 30 28 26 24 23 21 20 18 16 14 12 11 9 8 6 5 3 1 1 2 3 4 4 5 5 6 6 6 7 8
Wind_Direction
264 264 266 268 270 271 271 272 274 277 280 283 287 288 291 292 293 293 295 296 294 290 285 282 274 272 274 272 270 272 274 276 278 278 279 282 282 281 281 280 281 281 281
263 266 268 269 269 268 268 270 272 274 277 280 285 289 291 294 297 298 301 300 300 294 289 284 283 279 278 274 272 276 279 282 285 285 287 288 287 286 286 286 286 285 283
264 265 266 267 267 266 266 267 269 272 275 279 284 287 289 292 295 298 300 303 307 303 294 288 288 288 284 283 283 284 286 290 292 292 292 292 291 288 289 288 287 286 285
264 264 265 265 265 263 263 265 267 270 274 277 280 284 286 290 294 299 302 306 310 309 305 301 297 296 297 298 296 297 297 296 296 296 295 293 292 291 291 289 288 286 285
264 263 263 263 262 261 261 262 265 268 272 275 278 281 286 289 292 297 301 305 308 310 308 306 305 302 303 303 302 301 300 298 296 295 295 293 291 291 291 291 291 289 287
263 262 262 261 259 258 259 260 263 267 270 273 277 279 282 286 290 294 299 302 304 305 307 309 308 304 302 299 298 298 297 297 296 295 294 292 291 291 290 290 290 289 288
262 261 260 259 258 257 258 259 261 264 268 271 274 277 280 285 289 293 296 300 301 303 305 306 306 303 300 300 298 296 296 295 294 294 293 291 290 290 289 289 288 288 288
261 261 260 259 257 255 255 257 260 263 267 271 274 277 281 284 288 291 295 298 299 300 303 303 302 300 298 297 296 295 294 294 293 292 291 290 289 289 289 288 288 288 288
258 257 257 256 255 254 255 257 260 263 267 270 274 278 281 285 288 291 293 296 298 299 300 300 299 298 297 296 295 295 294 293 292 291 290 290 290 289 289 288 288 288 288
255 255 255 255 255 256 257 259 261 264 268 271 275 279 282 285 289 292 294 295 297 298 298 297 297 297 297 296 295 294 293 292 290 290 289 289 289 289 289 290 290 290 290
256 256 257 257 257 259 260 263 265 267 270 273 276 280 283 286 289 292 294 296 296 297 297 297 297 296 296 295 294 293 293 292 291 290 290 289 290 290 291 291 291 291 291
259 259 260 261 262 264 265 267 269 271 274 276 279 282 285 287 290 292 294 295 296 296 296 296 296 296 295 295 294 293 293 292 291 290 290 290 291 291 291 292 292 292 292
262 263 264 265 267 268 269 271 273 275 277 280 282 284 285 288 289 291 292 294 294 295 295 295 295 295 295 294 293 293 292 291 290 290 290 291 291 291 292 292 293 293 293
265 266 268 269 270 272 273 274 276 278 280 282 284 285 286 287 289 291 292 292 293 294 294 295 295 294 294 293 293 292 292 291 291 290 290 291 292 293 293 293 294 295 295
266 269 270 271 273 274 275 277 279 281 282 283 284 285 286 288 289 290 291 292 293 293 294 294 294 293 293 293 292 292 292 292 291 291 292 293 294 294 294 295 295 296 297
269 271 273 275 277 278 279 281 283 284 284 284 285 287 288 289 289 290 291 292 292 293 293 293 292 293 293 293 293 293 293 293 293 293 294 294 295 295 295 295 296 297 298
272 274 276 277 278 280 282 283 283 283 285 286 287 288 288 289 290 290 291 292 292 292 292 292 292 292 293 293 293 293 294 294 294 295 295 295 295 295 296 296 297 298 298
272 273 275 277 278 279 280 282 283 285 286 288 288 289 289 290 290 291 291 291 291 291 291 292 292 293 293 294 294 294 294 294 295 295 295 295 295 295 296 297 298 298 299
274 276 277 279 280 280 282 284 286 287 288 289 289 290 290 290 291 291 291 291 291 292 292 293 293 294 294 295 295 295 295 295 294 294 294 295 295 295 295 296 296 297 299
274 275 277 279 280 282 284 286 288 289 290 291 291 291 291 291 291 292 292 292 293 293 294 294 295 295 295 295 295 295 295 295 294 294 294 293 293 293 294 294 295 297 300
274 275 277 280 283 285 287 289 290 291 292 292 292 293 293 293 293 294 294 295 295 295 295 296 296 296 295 295 294 294 294 294 294 294 293 291 291 292 292 292 294 298 303
276 279 282 284 286 288 290 291 291 292 293 293 294 294 294 295 295 296 296 297 297 297 297 297 297 296 296 296 296 295 295 295 294 293 292 291 291 290 290 293 297 304 312
282 284 286 288 290 291 292 292 294 294 295 296 296 297 297 298 298 299 299 299 299 299 299 299 299 299 298 298 297 297 297 296 294 293 292 292 292 293 297 302 314 324 330
285 287 289 290 292 293 294 296 297 298 299 300 300 300 300 301 301 301 302 302 303 303 303 302 302 301 301 300 299 300 299 296 295 294 294 296 304 321 341 353 354 352 351
288 290 291 293 295 297 299 300 301 302 303 303 304 304 304 305 305 305 306 306 306 307 306 305 305 304 304 303 303 303 302 302 306 307 36 70 70 69 57 41 28 21 16
291 294 297 299 301 303 305 306 307 308 308 308 309 310 310 310 310 311 312 313 314 313 313 312 311 310 310 311 313 318 339 48 94 104 98 89 88 83 70 57 46 39 34
Height
5871 5871 5872 5872 5872 5872 5872 5871 5870 5869 5868 5866 5864 5862 5859 5857 5854 5850 5847 5844 5840 5837 5834 5832 5830 5830 5829 5829 5828 5828 5826 5826 5825 5824 5823 5822 5821 5819 5817 5815 5814 5812 5809
5865 5865 5866 5866 5866 5867 5866 5866 5865 5864 5862 5860 5859 5857 5854 5852 5848 5845 5841 5838 5833 5830 5827 5826 5825 5824 5822 5821 5821 5820 5819 5818 5818 5816 5815 5814 5813 5811 5808 5806 5804 5801 5798
5857 5858 5859 5859 5860 5860 5860 5860 5860 5858 5857 5855 5853 5851 5849 5846 5842 5839 5836 5832 5827 5824 5821 5819 5818 5817 5816 5815 5814 5813 5812 5811 5810 5809 5807 5805 5803 5801 5799 5796 5793 5790 5786
5849 5850 5851 5852 5853 5854 5854 5854 5853 5852 5851 5849 5848 5845 5843 5840 5837 5833 5830 5826 5822 5819 5816 5815 5814 5812 5810 5809 5808 5807 5805 5804 5802 5800 5798 5795 5792 5789 5785 5783 5780 5777 5773
5841 5842 5843 5844 5845 5846 5847 5847 5846 5846 5844 5843 5841 5839 5836 5833 5830 5827 5824 5821 5818 5815 5812 5811 5809 5807 5805 5803 5801 5800 5798 5795 5793 5790 5787 5784 5780 5776 5773 5769 5766 5762 5758
5832 5834 5835 5836 5837 5838 5839 5839 5839 5838 5837 5835 5834 5831 5829 5826 5823 5820 5818 5815 5812 5810 5807 5805 5802 5800 5798 5796 5793 5791 5788 5785 5782 5779 5775 5772 5768 5764 5760 5755 5751 5747 5742
5824 5825 5826 5828 5829 5830 5830 5830 5830 5830 5829 5827 5825 5823 5821 5818 5815 5813 5810 5807 5805 5802 5800 5797 5795 5792 5790 5787 5784 5781 5778 5774 5770 5766 5762 5758 5754 5750 5746 5741 5736 5732 5727
5815 5817 5818 5819 5820 5821 5822 5822 5822 5822 5820 5819 5817 5814 5812 5810 5807 5805 5802 5799 5796 5793 5790 5788 5785 5783 5779 5776 5773 5769 5766 5761 5757 5753 5749 5744 5740 5736 5731 5726 5721 5716 5712
5808 5809 5811 5812 5813 5813 5814 5814 5814 5813 5812 5810 5808 5806 5803 5801 5798 5795 5792 5789 5786 5783 5780 5777 5774 5771 5768 5764 5760 5756 5752 5748 5744 5739 5734 5729 5725 5720 5715 5710 5705 5701 5696
5801 5802 5803 5804 5805 5805 5806 5805 5805 5804 5803 5801 5799 5796 5794 5791 5788 5785 5781 5778 5775 5772 5768 5765 5761 5758 5754 5750 5746 5741 5737 5733 5728 5724 5719 5714 5709 5705 5700 5695 5689 5684 5679
5795 5795 5796 5796 5797 5797 5797 5797 5796 5795 5793 5791 5789 5786 5783 5780 5777 5773 5770 5766 5763 5759 5756 5752 5748 5743 5739 5735 5731 5727 5722 5718 5713 5708 5703 5699 5694 5689 5684 5680 5674 5669 5663
5788 5788 5788 5788 5788 5788 5788 5787 5786 5785 5783 5781 5778 5775 5772 5769 5765 5761 5758 5754 5750 5746 5742 5737 5733 5729 5724 5720 5716 5711 5707 5702 5697 5693 5688 5684 5679 5675 5670 5665 5659 5654 5648
5780 5780 5780 5779 5779 5778 5778 5777 5775 5774 5772 5769 5767 5764 5760 5757 5753 5749 5745 5741 5736 5732 5727 5723 5718 5714 5709 5705 5700 5696 5691 5687 5683 5678 5674 5669 5665 5661 5656 5650 5645 5640 5634
5771 5771 5770 5770 5769 5768 5767 5766 5764 5762 5760 5757 5754 5751 5748 5744 5740 5736 5731 5727 5722 5717 5713 5708 5703 5699 5694 5690 5685 5681 5677 5673 5668 5664 5660 5656 5651 5647 5642 5637 5631 5626 5621
5761 5761 5760 5759 5758 5757 5756 5754 5752 5750 5747 5745 5742 5738 5735 5730 5726 5722 5717 5712 5708 5703 5698 5693 5688 5684 5680 5675 5671 5667 5663 5659 5654 5650 5646 5642 5638 5633 5628 5623 5619 5614 5609
5751 5750 5750 5749 5747 5746 5744 5742 5740 5737 5735 5732 5729 5725 5721 5717 5712 5708 5703 5698 5693 5688 5684 5679 5674 5670 5666 5661 5657 5653 5649 5645 5641 5636 5632 5628 5624 5620 5615 5611 5607 5602 5597
5741 5740 5739 5738 5736 5734 5732 5730 5728 5725 5722 5718 5715 5711 5707 5703 5698 5694 5689 5684 5679 5674 5670 5665 5660 5656 5652 5648 5644 5640 5636 5632 5627 5623 5618 5614 5611 5607 5603 5599 5596 5592 5587
5731 5730 5729 5727 5725 5723 5721 5719 5716 5713 5709 5705 5701 5697 5693 5689 5685 5680 5675 5670 5666 5661 5656 5652 5647 5643 5639 5635 5631 5626 5622 5618 5614 5610 5606 5602 5598 5595 5592 5589 5586 5582 5579
5721 5720 5719 5717 5715 5712 5710 5707 5704 5700 5697 5693 5688 5684 5680 5676 5671 5667 5662 5657 5653 5648 5643 5639 5634 5630 5626 5621 5617 5613 5609 5605 5602 5598 5594 5591 5588 5586 5583 5580 5578 5575 5573
5712 5711 5709 5707 5705 5702 5699 5696 5692 5689 5685 5680 5676 5672 5668 5663 5658 5654 5649 5644 5640 5635 5630 5626 5621 5616 5612 5608 5604 5600 5596 5593 5590 5587 5584 5582 5580 5578 5576 5574 5572 5571 5569
5703 5702 5700 5697 5695 5692 5689 5685 5681 5677 5673 5669 5665 5660 5656 5651 5646 5642 5637 5632 5627 5623 5618 5613 5609 5604 5600 5596 5592 5589 5586 5583 5581 5578 5576 5575 5573 5572 5571 5569 5568 5567 5566
5695 5693 5691 5688 5685 5682 5679 5675 5671 5667 5663 5659 5654 5650 5645 5640 5635 5630 5625 5620 5615 5611 5606 5601 5597 5593 5589 5585 5582 5580 5578 5575 5574 5572 5570 5570 5569 5568 5567 5566 5566 5565 5563
5687 5685 5683 5680 5677 5674 5670 5667 5662 5658 5653 5649 5644 5639 5634 5629 5624 5619 5614 5609 5604 5599 5595 5591 5587 5583 5581 5578 5576 5574 5572 5570 5569 5568 5567 5566 5566 5566 5565 5565 5564 5563 5562
5680 5678 5675 5673 5670 5666 5662 5658 5654 5649 5645 5640 5635 5629 5624 5619 5614 5608 5604 5599 5595 5590 5586 5583 5580 5577 5575 5573 5571 5570 5569 5567 5566 5566 5565 5565 5565 5564 5564 5564 5563 5562 5561
5674 5672 5669 5666 5663 5659 5655 5651 5646 5641 5636 5631 5625 5619 5614 5609 5604 5600 5595 5591 5587 5584 5580 5578 5575 5573 5571 5570 5568 5567 5566 5566 5565 5565 5565 5565 5565 5565 5564 5564 5563 5562 5561
5668 5666 5663 5660 5657 5653 5648 5644 5639 5633 5628 5622 5616 5611 5606 5602 5597 5593 5590 5586 5583 5579 5576 5574 5572 5570 5569 5568 5567 5566 5566 5566 5565 5566 5566 5566 5566 5566 5565 5565 5564 5563 5561